When you browse on this site, cookies collect data to enhance your experience and personalize the content and advertising you see.
Visit our Privacy Policy to learn more. By continuing to use the site, you agree to this use of cookies and data.
  • In Romania
  • List of Countries
  • For 7 days
  • Water Temperature
  • Satellite Maps
  • Weather Map
  • Weather Widgets
  • user-avatar
    Login

    Hourly Weather Burg bei Magdeburg

    Today, 27 May, Monday

    Time Temperature Precipitation Wind Pressure Humidity
    00:00 +14°C° 0 mm 3 mps 752 mmHg 84%
    01:00 +13°C° 0 mm 3 mps 752 mmHg 86%
    02:00 +13°C° 0 mm 3 mps 751 mmHg 87%
    03:00 +13°C° 0 mm 3 mps 751 mmHg 88%
    04:00 +13°C° 0 mm 3 mps 751 mmHg 89%
    05:00 +13°C° 0 mm 4 mps 751 mmHg 87%
    06:00 +14°C° 0 mm 4 mps 751 mmHg 85%
    07:00 +15°C° 0 mm 4 mps 751 mmHg 84%
    08:00 +15°C° 0.1 mm 4 mps 751 mmHg 85%
    09:00 +16°C° 0.1 mm 3 mps 752 mmHg 86%
    10:00 +16°C° 0.1 mm 3 mps 752 mmHg 88%
    11:00 +16°C° 0.1 mm 3 mps 751 mmHg 88%
    12:00 +16°C° 0.1 mm 3 mps 751 mmHg 87%
    13:00 +16°C° 0.1 mm 3 mps 751 mmHg 87%
    14:00 +17°C° 0.1 mm 3 mps 751 mmHg 84%
    15:00 +18°C° 0.1 mm 3 mps 751 mmHg 80%
    16:00 +19°C° 0.1 mm 3 mps 751 mmHg 77%
    17:00 +18°C° 0.1 mm 3 mps 751 mmHg 79%
    18:00 +17°C° 0.1 mm 3 mps 751 mmHg 82%
    19:00 +17°C° 0.1 mm 2 mps 751 mmHg 85%
    20:00 +16°C° 0 mm 2 mps 751 mmHg 87%
    21:00 +15°C° 0 mm 2 mps 751 mmHg 89%
    22:00 +13°C° 0 mm 2 mps 751 mmHg 92%
    23:00 +13°C° 0 mm 2 mps 751 mmHg 90%

    Tomorrow, 28 May, Tuesday

    Time Temperature Precipitation Wind Pressure Humidity
    00:00 +13°C° 0 mm 2 mps 751 mmHg 88%
    01:00 +13°C° 0 mm 2 mps 751 mmHg 86%
    02:00 +13°C° 0 mm 2 mps 750 mmHg 87%
    03:00 +12°C° 0 mm 2 mps 750 mmHg 88%
    04:00 +12°C° 0 mm 2 mps 750 mmHg 88%
    05:00 +12°C° 0 mm 2 mps 750 mmHg 86%
    06:00 +13°C° 0 mm 2 mps 750 mmHg 84%
    07:00 +12°C° 0 mm 3 mps 750 mmHg 82%
    08:00 +14°C° 0 mm 2 mps 751 mmHg 76%
    09:00 +15°C° 0 mm 2 mps 751 mmHg 71%
    10:00 +16°C° 0 mm 2 mps 751 mmHg 65%
    11:00 +17°C° 0 mm 2 mps 751 mmHg 63%
    12:00 +17°C° 0 mm 2 mps 751 mmHg 61%
    13:00 +18°C° 0 mm 3 mps 751 mmHg 59%
    14:00 +18°C° 0.4 mm 3 mps 751 mmHg 63%
    15:00 +17°C° 0.4 mm 3 mps 751 mmHg 66%
    16:00 +17°C° 0.4 mm 3 mps 752 mmHg 70%
    17:00 +16°C° 0.4 mm 3 mps 752 mmHg 74%
    18:00 +14°C° 0.4 mm 3 mps 753 mmHg 79%
    19:00 +14°C° 0.4 mm 2 mps 753 mmHg 83%
    20:00 +13°C° 0.1 mm 2 mps 754 mmHg 85%
    21:00 +12°C° 0.1 mm 2 mps 755 mmHg 86%
    22:00 +10°C° 0.1 mm 2 mps 755 mmHg 88%
    23:00 +9°C° 0 mm 2 mps 756 mmHg 88%

    Day after tomorrow, 29 May, Wednesday

    Time Temperature Precipitation Wind Pressure Humidity
    00:00 +9°C° 0 mm 2 mps 756 mmHg 89%
    01:00 +8°C° 0 mm 2 mps 756 mmHg 89%
    02:00 +8°C° 0 mm 2 mps 757 mmHg 89%
    03:00 +7°C° 0 mm 2 mps 757 mmHg 88%
    04:00 +7°C° 0 mm 2 mps 758 mmHg 88%
    05:00 +7°C° 0 mm 2 mps 758 mmHg 84%
    06:00 +8°C° 0 mm 2 mps 759 mmHg 80%
    07:00 +9°C° 0 mm 2 mps 759 mmHg 75%
    08:00 +10°C° 0 mm 2 mps 760 mmHg 68%
    09:00 +13°C° 0 mm 2 mps 760 mmHg 60%
    10:00 +14°C° 0 mm 2 mps 760 mmHg 52%
    11:00 +16°C° 0 mm 1 mps 760 mmHg 49%
    12:00 +18°C° 0 mm 1 mps 760 mmHg 47%
    13:00 +17°C° 0 mm 0 mps 760 mmHg 44%
    14:00 +19°C° 0 mm 1 mps 760 mmHg 44%
    15:00 +19°C° 0 mm 1 mps 760 mmHg 43%
    16:00 +19°C° 0 mm 1 mps 759 mmHg 43%
    17:00 +19°C° 0 mm 1 mps 759 mmHg 50%
    18:00 +18°C° 0 mm 1 mps 759 mmHg 56%
    19:00 +16°C° 0 mm 1 mps 759 mmHg 63%
    20:00 +14°C° 0 mm 1 mps 759 mmHg 67%
    21:00 +13°C° 0 mm 2 mps 759 mmHg 72%
    22:00 +10°C° 0 mm 2 mps 759 mmHg 77%
    23:00 +10°C° 0 mm 2 mps 759 mmHg 79%

    30 May, Thursday

    Time Temperature Precipitation Wind Pressure Humidity
    00:00 +9°C° 0 mm 3 mps 759 mmHg 82%
    01:00 +9°C° 0 mm 3 mps 759 mmHg 85%
    02:00 +9°C° 0 mm 3 mps 759 mmHg 84%
    03:00 +8°C° 0 mm 4 mps 758 mmHg 84%
    04:00 +8°C° 0 mm 4 mps 758 mmHg 84%
    05:00 +11°C° 0 mm 4 mps 758 mmHg 81%
    06:00 +12°C° 0 mm 5 mps 758 mmHg 78%
    07:00 +14°C° 0 mm 5 mps 758 mmHg 76%
    08:00 +14°C° 0.1 mm 4 mps 758 mmHg 79%
    09:00 +14°C° 0.1 mm 4 mps 758 mmHg 83%
    10:00 +14°C° 0.1 mm 3 mps 758 mmHg 86%
    11:00 +16°C° 0.2 mm 3 mps 758 mmHg 84%
    12:00 +17°C° 0.2 mm 3 mps 758 mmHg 81%
    13:00 +19°C° 0.2 mm 3 mps 758 mmHg 79%
    14:00 +19°C° 0.3 mm 3 mps 758 mmHg 74%
    15:00 +20°C° 0.3 mm 3 mps 758 mmHg 70%
    16:00 +21°C° 0.3 mm 4 mps 758 mmHg 66%
    17:00 +20°C° 0 mm 3 mps 758 mmHg 68%
    18:00 +19°C° 0 mm 2 mps 758 mmHg 71%
    19:00 +19°C° 0 mm 2 mps 758 mmHg 74%
    20:00 +17°C° 0 mm 2 mps 759 mmHg 78%
    21:00 +16°C° 0 mm 2 mps 759 mmHg 83%
    22:00 +14°C° 0 mm 2 mps 759 mmHg 87%
    23:00 +14°C° 0 mm 2 mps 758 mmHg 89%

    31 May, Friday

    Time Temperature Precipitation Wind Pressure Humidity
    00:00 +13°C° 0 mm 3 mps 758 mmHg 91%
    01:00 +13°C° 0 mm 3 mps 758 mmHg 93%
    02:00 +14°C° 0.8 mm 3 mps 758 mmHg 94%
    03:00 +14°C° 0.8 mm 3 mps 757 mmHg 95%
    04:00 +14°C° 0.8 mm 4 mps 757 mmHg 95%
    05:00 +14°C° 1.2 mm 4 mps 757 mmHg 95%
    06:00 +15°C° 1.2 mm 4 mps 757 mmHg 95%
    07:00 +15°C° 1.2 mm 4 mps 757 mmHg 94%
    08:00 +17°C° 0.2 mm 4 mps 757 mmHg 91%
    09:00 +16°C° 0.2 mm 5 mps 758 mmHg 88%
    10:00 +17°C° 0.2 mm 5 mps 758 mmHg 85%
    11:00 +16°C° 0.2 mm 5 mps 758 mmHg 84%
    12:00 +15°C° 0.2 mm 6 mps 759 mmHg 82%
    13:00 +14°C° 0.2 mm 6 mps 760 mmHg 81%
    14:00 +14°C° 0.1 mm 6 mps 760 mmHg 80%
    15:00 +13°C° 0.1 mm 6 mps 761 mmHg 79%
    16:00 +13°C° 0.1 mm 5 mps 762 mmHg 78%
    17:00 +13°C° 0 mm 5 mps 762 mmHg 77%
    18:00 +13°C° 0 mm 4 mps 763 mmHg 75%
    19:00 +12°C° 0 mm 3 mps 763 mmHg 74%
    20:00 +11°C° 0 mm 3 mps 764 mmHg 76%
    21:00 +9°C° 0 mm 2 mps 765 mmHg 78%
    22:00 +8°C° 0 mm 2 mps 765 mmHg 80%
    23:00 +7°C° 0 mm 2 mps 765 mmHg 83%

    1 June, Saturday

    Time Temperature Precipitation Wind Pressure Humidity
    00:00 +7°C° 0 mm 2 mps 766 mmHg 86%
    01:00 +5°C° 0 mm 3 mps 766 mmHg 89%
    02:00 +5°C° 0 mm 3 mps 766 mmHg 91%
    03:00 +4°C° 0 mm 3 mps 766 mmHg 93%
    04:00 +4°C° 0 mm 3 mps 767 mmHg 95%
    05:00 +5°C° 0 mm 3 mps 767 mmHg 90%
    06:00 +8°C° 0 mm 3 mps 767 mmHg 84%
    07:00 +9°C° 0 mm 3 mps 767 mmHg 78%
    08:00 +10°C° 0 mm 3 mps 767 mmHg 70%
    09:00 +12°C° 0 mm 3 mps 767 mmHg 62%
    10:00 +14°C° 0 mm 3 mps 767 mmHg 53%
    11:00 +16°C° 0 mm 3 mps 767 mmHg 50%
    12:00 +17°C° 0 mm 3 mps 767 mmHg 47%
    13:00 +18°C° 0 mm 2 mps 767 mmHg 44%
    14:00 +18°C° 0 mm 2 mps 767 mmHg 44%
    15:00 +19°C° 0 mm 2 mps 766 mmHg 44%
    16:00 +19°C° 0 mm 2 mps 766 mmHg 44%
    17:00 +19°C° 0 mm 1 mps 766 mmHg 50%
    18:00 +18°C° 0 mm 1 mps 766 mmHg 56%
    19:00 +15°C° 0 mm 0 mps 766 mmHg 63%
    20:00 +15°C° 0 mm 1 mps 766 mmHg 65%
    21:00 +14°C° 0 mm 1 mps 767 mmHg 67%
    22:00 +12°C° 0 mm 1 mps 767 mmHg 69%
    23:00 +12°C° 0 mm 1 mps 767 mmHg 71%
    Show more